{"data":{"norad_id":69316,"intl_designator":"2026-119W","name":"STARLINK-37738","alt_names":[],"object_type":"PAYLOAD","status":"ACTIVE","operator":null,"country":"US","launch_date":"2026-05-30","launch_site_code":"AFWTR","launch_vehicle":null,"mission":null,"orbit_class":"UNKNOWN","rcs_meters":null,"size_class":null,"mass_kg":null,"dimensions":null,"purposes":["comms"],"wikipedia_slug":null,"has_3d_model":false,"image_url":null,"decayed_at":null,"tle_current":{"epoch":"2026-09-20T00:27:54.820800Z","epoch_age_seconds":70626,"freshness":"FRESH","line1":"1 69316U 26119W   26263.01938450  .00014359  00000+0  44617-3 0  9999","line2":"2 69316  97.2836 287.8205 0001443  94.5388 265.6020 15.33451262 18599","mean_motion":15.33451262,"eccentricity":0.0001443,"inclination_deg":97.2836,"raan_deg":287.8205,"arg_perigee_deg":94.5388,"mean_anomaly_deg":265.602,"bstar":0.00044617,"rev_number":1859,"period_min":93.905821181554,"perigee_km":464.53700287454,"apogee_km":466.51208359591,"semimajor_km":6843.6615432352,"source":"CELESTRAK","updated_at":"2026-09-20T09:00:44.157963Z"}}}